Pratt, KS

8:21 AM CST on February 12, 2016 (GMT -0600)
Pratt Industrial

Weather History for KPTT - August, 2013

Change the Weather History Date:

Saturday, August 24, 2013

  Actual Average (KP28) Record (KP28)
Temperature  
Mean Temperature 82 °F 79 °F  
Max Temperature 93 °F 91 °F 109 °F (1939)
Min Temperature 71 °F 67 °F 45 °F (1896)
Degree Days  
Heating Degree Days 0 0  
Month to date heating degree days 0  
Since 1 June heating degree days 3  
Since 1 July heating degree days 0  
Cooling Degree Days 17 14  
Month to date cooling degree days 383  
Year to date cooling degree days 1420  
Since 1 June cooling degree days 1264  
Growing Degree Days 32 (Base 50)    
Moisture  
Dew Point 64 °F    
Average Humidity 57    
Maximum Humidity 83    
Minimum Humidity 28    
Precipitation  
Precipitation 0.00 in 0.11 in 1.76 in (2010)
Month to date precipitation 2.37  
Year to date precipitation 19.60  
Snow  
Snow 0.00 in 0.00 in - ()
Month to date snowfall 0.0  
Since 1 June snowfall 0.0  
Since 1 July snowfall 0.0  
Snow Depth -    
Sea Level Pressure  
Sea Level Pressure 30.08 in    
Wind  
Wind Speed 13 mph (SSE)    
Max Wind Speed 18 mph    
Max Gust Speed 26 mph    
Visibility 10 miles    
Events      
T = Trace of Precipitation, MM = Missing Value Source: NWS Daily Summary

Daily Weather History Graph

Daily Weather History Graph

Search for Another Location

Airport or City:

Trip Planner

Search our weather history database for the weather conditions in past years. The results will help you decide how hot, cold, wet, or windy it might be!

Date:

Astronomy

Aug. 24, 2013 Rise Set
Actual Time 6:58 AM CDT 8:15 PM CDT
Civil Twilight 6:31 AM CDT 8:42 PM CDT
Nautical Twilight 5:58 AM CDT 9:14 PM CDT
Astronomical Twilight 5:24 AM CDT 9:48 PM CDT
Moon 10:16 PM CDT (8/24) 10:54 AM CDT (8/24)
Length of Visible Light 14h 11m
Length of Day
13h 16m
Waning Gibbous, 84% of the Moon is Illuminated
Aug 24
Waning Gibbous
Aug 28
Last Quarter
Sep 5
New
Sep 12
First Quarter
Sep 19
Full

Hourly Weather History & Observations

Time (CDT) Temp. Heat Index Dew Point Humidity Pressure Visibility Wind Dir Wind Speed Gust Speed Precip Events Conditions
12:15 AM 78.8 °F - 68.0 °F 69% 30.05 in 10.0 mi South 13.8 mph - N/A   Clear
12:35 AM 77.0 °F - 68.0 °F 74% 30.05 in 10.0 mi SSE 13.8 mph - N/A   Clear
12:55 AM 77.0 °F - 68.0 °F 74% 30.06 in 10.0 mi South 13.8 mph - N/A   Clear
1:15 AM 77.0 °F - 68.0 °F 74% 30.07 in 10.0 mi South 12.7 mph - N/A   Clear
1:35 AM 77.0 °F - 68.0 °F 74% 30.07 in 10.0 mi South 11.5 mph - N/A   Clear
1:55 AM 75.2 °F - 68.0 °F 78% 30.07 in 10.0 mi South 13.8 mph - N/A   Clear
2:15 AM 75.2 °F - 66.2 °F 73% 30.07 in 10.0 mi South 13.8 mph - N/A   Clear
2:35 AM 75.2 °F - 66.2 °F 73% 30.06 in 10.0 mi South 12.7 mph - N/A   Clear
2:55 AM 73.4 °F - 66.2 °F 78% 30.06 in 10.0 mi South 12.7 mph - N/A   Clear
3:15 AM 73.4 °F - 66.2 °F 78% 30.06 in 10.0 mi South 12.7 mph - N/A   Scattered Clouds
3:35 AM 73.4 °F - 66.2 °F 78% 30.06 in 10.0 mi SSE 11.5 mph 17.3 mph N/A   Mostly Cloudy
3:55 AM 73.4 °F - 66.2 °F 78% 30.07 in 10.0 mi South 11.5 mph - N/A   Mostly Cloudy
4:15 AM 73.4 °F - 66.2 °F 78% 30.07 in 10.0 mi South 10.4 mph - N/A   Scattered Clouds
4:35 AM 71.6 °F - 66.2 °F 83% 30.07 in 10.0 mi South 9.2 mph - N/A   Clear
4:55 AM 71.6 °F - 66.2 °F 83% 30.08 in 10.0 mi South 9.2 mph - N/A   Clear
5:15 AM 71.6 °F - 66.2 °F 83% 30.08 in 10.0 mi SSE 10.4 mph - N/A   Clear
5:35 AM 71.6 °F - 66.2 °F 83% 30.08 in 10.0 mi SSE 10.4 mph - N/A   Clear
5:55 AM 71.6 °F - 66.2 °F 83% 30.08 in 10.0 mi SSE 10.4 mph - N/A   Clear
6:15 AM 71.6 °F - 66.2 °F 83% 30.08 in 10.0 mi SSE 9.2 mph - N/A   Clear
6:35 AM 71.6 °F - 66.2 °F 83% 30.08 in 10.0 mi South 10.4 mph - N/A   Clear
6:55 AM 71.6 °F - 66.2 °F 83% 30.09 in 10.0 mi SSE 11.5 mph - N/A   Clear
7:15 AM 71.6 °F - 66.2 °F 83% 30.09 in 10.0 mi SSE 11.5 mph - N/A   Clear
7:35 AM 71.6 °F - 64.4 °F 78% 30.09 in 10.0 mi SSE 10.4 mph - N/A   Clear
7:55 AM 71.6 °F - 64.4 °F 78% 30.10 in 10.0 mi South 11.5 mph - N/A   Clear
8:15 AM 73.4 °F - 64.4 °F 73% 30.10 in 10.0 mi SSE 10.4 mph - N/A   Clear
8:35 AM 73.4 °F - 64.4 °F 73% 30.10 in 10.0 mi SSE 12.7 mph - N/A   Clear
8:55 AM 77.0 °F - 64.4 °F 65% 30.11 in 10.0 mi South 12.7 mph - N/A   Clear
9:15 AM 77.0 °F - 64.4 °F 65% 30.11 in 10.0 mi South 15.0 mph 20.7 mph N/A   Clear
9:35 AM 78.8 °F - 64.4 °F 61% 30.11 in 10.0 mi South 15.0 mph 19.6 mph N/A   Clear
9:55 AM 80.6 °F 82.3 °F 64.4 °F 58% 30.11 in 10.0 mi South 15.0 mph 20.7 mph N/A   Clear
10:15 AM 80.6 °F 82.3 °F 64.4 °F 58% 30.11 in 10.0 mi South 15.0 mph - N/A   Clear
10:35 AM 82.4 °F 83.9 °F 64.4 °F 54% 30.11 in 10.0 mi SSW 15.0 mph 20.7 mph N/A   Clear
10:55 AM 82.4 °F 83.9 °F 64.4 °F 54% 30.12 in 10.0 mi South 16.1 mph - N/A   Clear
11:15 AM 84.2 °F 85.6 °F 64.4 °F 51% 30.12 in 10.0 mi South 15.0 mph - N/A   Clear
11:35 AM 86.0 °F 87.3 °F 64.4 °F 48% 30.12 in 10.0 mi South 12.7 mph - N/A   Clear
11:55 AM 87.8 °F 89.4 °F 64.4 °F 46% 30.12 in 10.0 mi South 15.0 mph 18.4 mph N/A   Clear
12:15 PM 87.8 °F 89.4 °F 64.4 °F 46% 30.12 in 10.0 mi South 15.0 mph - N/A   Clear
12:35 PM 87.8 °F 89.4 °F 64.4 °F 46% 30.11 in 10.0 mi South 13.8 mph - N/A   Clear
12:55 PM 89.6 °F 90.1 °F 62.6 °F 40% 30.11 in 10.0 mi South 12.7 mph 19.6 mph N/A   Clear
1:15 PM 89.6 °F 90.1 °F 62.6 °F 40% 30.10 in 10.0 mi South 16.1 mph 20.7 mph N/A   Clear
1:35 PM 89.6 °F 91.1 °F 64.4 °F 43% 30.10 in 10.0 mi South 15.0 mph - N/A   Clear
1:55 PM 89.6 °F 90.1 °F 62.6 °F 40% 30.10 in 10.0 mi South 16.1 mph - N/A   Clear
2:15 PM 91.4 °F 92.1 °F 62.6 °F 38% 30.09 in 10.0 mi SSE 16.1 mph 21.9 mph N/A   Clear
2:35 PM 91.4 °F 91.4 °F 60.8 °F 36% 30.09 in 10.0 mi South 16.1 mph 21.9 mph N/A   Clear
2:55 PM 91.4 °F 91.4 °F 60.8 °F 36% 30.09 in 10.0 mi South 16.1 mph 20.7 mph N/A   Clear
3:15 PM 93.2 °F 92.6 °F 59.0 °F 32% 30.08 in 10.0 mi South 13.8 mph 20.7 mph N/A   Clear
3:35 PM 93.2 °F 92.6 °F 59.0 °F 32% 30.07 in 10.0 mi South 16.1 mph 23.0 mph N/A   Clear
3:55 PM 93.2 °F 91.3 °F 55.4 °F 28% 30.07 in 10.0 mi South 17.3 mph 21.9 mph N/A   Clear
4:15 PM 93.2 °F 91.3 °F 55.4 °F 28% 30.06 in 10.0 mi South 16.1 mph 21.9 mph N/A   Clear
4:35 PM 93.2 °F 91.3 °F 55.4 °F 28% 30.05 in 10.0 mi South 16.1 mph 25.3 mph N/A   Scattered Clouds
4:55 PM 93.2 °F 92.6 °F 59.0 °F 32% 30.05 in 10.0 mi South 16.1 mph 23.0 mph N/A   Clear
5:15 PM 93.2 °F 91.9 °F 57.2 °F 30% 30.05 in 10.0 mi South 18.4 mph - N/A   Clear
5:35 PM 93.2 °F 92.6 °F 59.0 °F 32% 30.05 in 10.0 mi South 15.0 mph 21.9 mph N/A   Scattered Clouds
5:55 PM 93.2 °F 92.6 °F 59.0 °F 32% 30.05 in 10.0 mi South 13.8 mph 23.0 mph N/A   Scattered Clouds
6:15 PM 91.4 °F 90.7 °F 59.0 °F 34% 30.05 in 10.0 mi South 15.0 mph 26.5 mph N/A   Scattered Clouds
6:35 PM 91.4 °F 90.7 °F 59.0 °F 34% 30.05 in 10.0 mi SSE 12.7 mph 19.6 mph N/A   Scattered Clouds
6:55 PM 91.4 °F 90.7 °F 59.0 °F 34% 30.05 in 10.0 mi SSE 12.7 mph 18.4 mph N/A   Scattered Clouds
7:15 PM 89.6 °F 89.5 °F 60.8 °F 38% 30.05 in 10.0 mi SSE 12.7 mph - N/A   Scattered Clouds
7:35 PM 89.6 °F 89.5 °F 60.8 °F 38% 30.05 in 10.0 mi SSE 11.5 mph - N/A   Clear
7:55 PM 87.8 °F 88.5 °F 62.6 °F 43% 30.06 in 10.0 mi SSE 9.2 mph - N/A   Clear
8:15 PM 86.0 °F 86.6 °F 62.6 °F 45% 30.07 in 10.0 mi SSE 10.4 mph - N/A   Clear
8:35 PM 84.2 °F 85.6 °F 64.4 °F 51% 30.07 in 10.0 mi SSE 9.2 mph - N/A   Clear
8:55 PM 84.2 °F 85.6 °F 64.4 °F 51% 30.08 in 10.0 mi SSE 11.5 mph - N/A   Clear
9:15 PM 82.4 °F 83.9 °F 64.4 °F 54% 30.09 in 10.0 mi SSE 12.7 mph - N/A   Clear
9:35 PM 82.4 °F 83.9 °F 64.4 °F 54% 30.10 in 10.0 mi SSE 10.4 mph - N/A   Clear
9:55 PM 82.4 °F 83.9 °F 64.4 °F 54% 30.11 in 10.0 mi SSE 11.5 mph 16.1 mph N/A   Clear
10:15 PM 80.6 °F 82.3 °F 64.4 °F 58% 30.11 in 10.0 mi SSE 13.8 mph 18.4 mph N/A   Clear
10:35 PM 80.6 °F 82.7 °F 66.2 °F 61% 30.12 in 10.0 mi SSE 13.8 mph 19.6 mph N/A   Clear
10:55 PM 80.6 °F 82.7 °F 66.2 °F 61% 30.12 in 10.0 mi SSE 13.8 mph 19.6 mph N/A   Clear
11:15 PM 80.6 °F 82.7 °F 66.2 °F 61% 30.13 in 10.0 mi SSE 13.8 mph 18.4 mph N/A   Clear
11:35 PM 78.8 °F - 66.2 °F 65% 30.13 in 10.0 mi SSE 12.7 mph 19.6 mph N/A   Clear
11:55 PM 78.8 °F - 66.2 °F 65% 30.14 in 10.0 mi SSE 12.7 mph 20.7 mph N/A   Clear